Weather History for Wainwright, AK

Change the Weather History Date:

Friday, January 31, 2014

  Actual Average (PABR) Record (PABR)
Temperature  
Mean Temperature 11 °F -14 °F  
Max Temperature 18 °F -8 °F 29 °F (1957)
Min Temperature 5 °F -20 °F -50 °F (1993)
Degree Days  
Heating Degree Days 54 79  
Month to date heating degree days 2429  
Since 1 July heating degree days 10636  
Cooling Degree Days 0    
Month to date cooling degree days  
Year to date cooling degree days  
Moisture  
Dew Point 6 °F    
Average Humidity 82    
Maximum Humidity 86    
Minimum Humidity 79    
Precipitation  
Precipitation 0.00 in 0.00 in 0.25 in (1962)
Month to date precipitation 0.13  
Year to date precipitation 0.13  
Snow  
Snow 0.00 in 0.10 in 2.50 in (1962)
Month to date snowfall 2.6  
Since 1 July snowfall 26.4  
Snow Depth -    
Sea Level Pressure  
Sea Level Pressure 30.11 in    
Wind  
Wind Speed 6 mph (ESE)    
Max Wind Speed 15 mph    
Max Gust Speed -    
Visibility 9 miles    
Events Snow    
T = Trace of Precipitation, MM = Missing Value Source: NWS Daily Summary

Daily Weather History Graph

Daily Weather History Graph

Search for Another Location

Airport:

Trip Planner

Search our weather history database for the weather conditions in past years. The results will help you decide how hot, cold, wet, or windy it might be!

Date:

Astronomy

Jan. 31, 2014 Rise Set
Actual Time 11:40 AM AKST 4:07 PM AKST
Civil Twilight 10:07 AM AKST 5:40 PM AKST
Nautical Twilight 8:45 AM AKST 7:02 PM AKST
Astronomical Twilight 7:32 AM AKST 8:16 PM AKST
Moon 10:26 AM AKST (1/31) 7:32 PM AKST (1/31)
Length of Visible Light 7h 32m
Length of Day
4h 27m
New Moon, 1% of the Moon is Illuminated
Jan 31
New Moon
Feb 6
First Quarter
Feb 14
Full
Feb 22
Last Quarter
Feb 28
New

Hourly Weather History & Observations

Time (AKST) Temp. Windchill Dew Point Humidity Pressure Visibility Wind Dir Wind Speed Gust Speed Precip Events Conditions
12:53 AM 16.0 °F 8.8 °F 10.9 °F 81% 30.11 in 10.0 mi ENE 4.6 mph - N/A   Clear
1:53 AM 10.0 °F -0.9 °F 6.1 °F 84% 30.11 in 10.0 mi SE 6.9 mph - N/A   Clear
3:53 AM 14.0 °F 2.0 °F 10.0 °F 84% 30.12 in 10.0 mi East 9.2 mph - N/A   Clear
4:53 AM 14.0 °F 5.1 °F 10.0 °F 84% 30.10 in 10.0 mi East 5.8 mph - N/A   Clear
5:53 AM 10.9 °F -1.8 °F 7.0 °F 84% 30.09 in 10.0 mi ENE 9.2 mph - N/A   Clear
6:53 AM 12.0 °F -3.4 °F 7.0 °F 80% 30.08 in 10.0 mi East 13.8 mph - N/A   Clear
7:53 AM 12.0 °F -0.4 °F 8.1 °F 84% 30.08 in 10.0 mi East 9.2 mph - N/A   Clear
8:53 AM 10.0 °F -4.5 °F 5.0 °F 80% 30.07 in 10.0 mi East 11.5 mph - N/A   Clear
9:53 AM 8.1 °F -5.3 °F 3.0 °F 80% 30.07 in 10.0 mi East 9.2 mph - N/A   Clear
10:53 AM 8.1 °F -9.0 °F 3.0 °F 80% 30.06 in 10.0 mi East 15.0 mph - N/A   Clear
11:53 AM 5.0 °F -10.8 °F -0.0 °F 80% 30.07 in 10.0 mi East 11.5 mph - N/A   Clear
12:53 PM 8.1 °F -4.3 °F 3.0 °F 80% 30.07 in 10.0 mi East 8.1 mph - N/A   Clear
1:53 PM 7.0 °F -5.7 °F 1.9 °F 80% 30.08 in 10.0 mi ESE 8.1 mph - N/A   Clear
2:53 PM 8.1 °F -3.2 °F 3.0 °F 80% 30.08 in 10.0 mi ESE 6.9 mph - N/A   Clear
3:53 PM 9.0 °F -2.2 °F 3.9 °F 80% 30.08 in 10.0 mi East 6.9 mph - N/A   Clear
4:53 PM 9.0 °F -0.9 °F 3.9 °F 80% 30.09 in 10.0 mi SSE 5.8 mph - N/A   Clear
5:53 PM 9.0 °F 2.4 °F 3.9 °F 80% 30.10 in 10.0 mi SSE 3.5 mph - N/A   Clear
6:53 PM 9.0 °F 0.6 °F 3.9 °F 80% 30.11 in 10.0 mi SE 4.6 mph - N/A   Clear
7:53 PM 8.1 °F 1.4 °F 3.0 °F 80% 30.13 in 10.0 mi SSE 3.5 mph - N/A   Clear
8:53 PM 9.0 °F - 3.9 °F 80% 30.14 in 10.0 mi Calm Calm - N/A   Mostly Cloudy
9:53 PM 10.9 °F - 7.0 °F 84% 30.15 in 10.0 mi Calm Calm - N/A   Overcast
10:20 PM 12.2 °F - 8.6 °F 85% 30.16 in 2.0 mi Calm Calm - 0.00 in Snow Light Snow
10:40 PM 14.0 °F - 10.4 °F 86% 30.16 in 2.5 mi Calm Calm - 0.00 in Snow Light Snow
10:49 PM 15.8 °F - 10.4 °F 79% 30.16 in 4.0 mi Calm Calm - 0.00 in Snow Light Snow
10:53 PM 15.1 °F - 10.9 °F 84% 30.17 in 6.0 mi Calm Calm - 0.00 in Snow Light Snow
11:41 PM 17.6 °F 12.3 °F 12.2 °F 79% 30.18 in 5.0 mi South 3.5 mph - 0.00 in Snow Light Snow
11:53 PM 18.0 °F - 14.0 °F 84% 30.19 in 4.0 mi Calm Calm - 0.00 in Snow Light Snow